JST741 YMML-YMHB

Flight info

Callsign JST741
Flight time 0h 56m
Altitude 33000
Route ML H169 IRSOM V33 TASUM
Aircraft A320/M-SDE3FGHIRWY/LB1

Departure

Time 2026-04-26 06:28
Airport Melbourne Airport (YMML)

Arrival

Time 2026-04-26 07:24
Airport Hobart International Airport (YMHB)
Time Latitude Longitude Altitude Speed Heading
2026-04-26 06:10 -37.67523 144.84637 377 ft 0 kts 170°
2026-04-26 06:18 -37.67522 144.84637 377 ft 1 kts 170°
2026-04-26 06:18 -37.67509 144.84634 378 ft 3 kts 171°
2026-04-26 06:18 -37.67489 144.84630 379 ft 3 kts 171°
2026-04-26 06:18 -37.67473 144.84628 379 ft 3 kts 139°
2026-04-26 06:19 -37.67467 144.84611 380 ft 3 kts 85°
2026-04-26 06:19 -37.67468 144.84591 379 ft 1 kts 82°
2026-04-26 06:19 -37.67471 144.84573 380 ft 3 kts 70°
2026-04-26 06:19 -37.67480 144.84552 380 ft 3 kts 35°
2026-04-26 06:20 -37.67497 144.84543 380 ft 3 kts
2026-04-26 06:20 -37.67517 144.84544 379 ft 3 kts 348°
2026-04-26 06:20 -37.67534 144.84549 378 ft 1 kts 351°
2026-04-26 06:20 -37.67536 144.84549 378 ft 2 kts 352°
2026-04-26 06:22 -37.67524 144.84547 378 ft 3 kts 351°
2026-04-26 06:23 -37.67503 144.84542 379 ft 4 kts 345°
2026-04-26 06:23 -37.67470 144.84504 380 ft 10 kts 296°
2026-04-26 06:23 -37.67475 144.84390 376 ft 14 kts 259°
2026-04-26 06:23 -37.67539 144.84335 376 ft 13 kts 175°
2026-04-26 06:24 -37.67645 144.84354 372 ft 18 kts 172°
2026-04-26 06:24 -37.67750 144.84372 367 ft 14 kts 177°
2026-04-26 06:24 -37.67836 144.84320 363 ft 15 kts 231°
2026-04-26 06:24 -37.67863 144.84196 360 ft 13 kts 262°
2026-04-26 06:25 -37.67870 144.84132 364 ft 0 kts 261°
2026-04-26 06:26 -37.67870 144.84131 364 ft 1 kts 261°
2026-04-26 06:26 -37.67875 144.84094 359 ft 7 kts 262°
2026-04-26 06:26 -37.67883 144.84021 360 ft 9 kts 262°
2026-04-26 06:27 -37.67837 144.83963 361 ft 21 kts 351°
2026-04-26 06:27 -37.67451 144.83890 372 ft 87 kts 351°
2026-04-26 06:27 -37.66675 144.83748 402 ft 136 kts 352°
2026-04-26 06:27 -37.65716 144.83589 803 ft 141 kts 353°
2026-04-26 06:28 -37.64742 144.83397 1365 ft 142 kts 350°
2026-04-26 06:28 -37.63769 144.83205 1985 ft 142 kts 350°
2026-04-26 06:28 -37.62722 144.83193 2357 ft 162 kts 18°
2026-04-26 06:28 -37.61840 144.84202 2627 ft 194 kts 64°
2026-04-26 06:29 -37.61822 144.85974 2963 ft 224 kts 108°
2026-04-26 06:29 -37.62653 144.87769 3267 ft 251 kts 127°
2026-04-26 06:29 -37.63844 144.89528 3745 ft 276 kts 133°
2026-04-26 06:29 -37.65204 144.91382 4215 ft 300 kts 133°
2026-04-26 06:30 -37.66671 144.93409 4643 ft 325 kts 133°
2026-04-26 06:30 -37.68188 144.95590 5342 ft 334 kts 132°
2026-04-26 06:30 -37.69708 144.97846 6167 ft 339 kts 133°
2026-04-26 06:30 -37.71523 144.99750 6961 ft 341 kts 152°
2026-04-26 06:31 -37.73727 145.00820 7750 ft 340 kts 172°
2026-04-26 06:31 -37.76075 145.00931 8536 ft 339 kts 189°
2026-04-26 06:31 -37.78435 145.00582 9327 ft 343 kts 189°
2026-04-26 06:31 -37.80820 145.00211 10091 ft 347 kts 189°
2026-04-26 06:32 -37.83213 144.99840 10995 ft 344 kts 189°
2026-04-26 06:32 -37.85600 144.99477 11754 ft 347 kts 189°
2026-04-26 06:32 -37.88018 144.99114 12441 ft 352 kts 189°
2026-04-26 06:32 -37.90469 144.98746 13132 ft 357 kts 189°
2026-04-26 06:33 -37.92957 144.98371 13805 ft 362 kts 189°
2026-04-26 06:33 -37.95485 144.98023 14426 ft 369 kts 185°
2026-04-26 06:33 -37.98076 144.98158 14993 ft 377 kts 173°
2026-04-26 06:33 -38.00647 144.98961 15549 ft 384 kts 161°
2026-04-26 06:34 -38.03184 145.00103 16108 ft 389 kts 161°
2026-04-26 06:34 -38.05754 145.01255 16680 ft 394 kts 161°
2026-04-26 06:34 -38.08359 145.02416 17247 ft 400 kts 161°
2026-04-26 06:34 -38.10998 145.03584 17824 ft 405 kts 161°
2026-04-26 06:35 -38.13678 145.04769 18400 ft 410 kts 161°
2026-04-26 06:35 -38.16382 145.05968 18923 ft 414 kts 161°
2026-04-26 06:35 -38.19104 145.07180 19512 ft 416 kts 161°
2026-04-26 06:35 -38.21837 145.08397 20142 ft 417 kts 161°
2026-04-26 06:36 -38.24583 145.09624 20775 ft 419 kts 162°
2026-04-26 06:36 -38.27339 145.10855 21386 ft 421 kts 162°
2026-04-26 06:36 -38.30110 145.12093 21988 ft 422 kts 162°
2026-04-26 06:36 -38.32890 145.13336 22593 ft 424 kts 162°
2026-04-26 06:37 -38.35682 145.14587 23167 ft 426 kts 163°
2026-04-26 06:37 -38.38486 145.15843 23745 ft 428 kts 163°
2026-04-26 06:37 -38.41307 145.17103 24224 ft 430 kts 163°
2026-04-26 06:37 -38.44138 145.18367 24686 ft 432 kts 163°
2026-04-26 06:38 -38.46982 145.19641 25147 ft 434 kts 163°
2026-04-26 06:38 -38.49836 145.20922 25596 ft 436 kts 163°
2026-04-26 06:38 -38.52703 145.22204 26039 ft 438 kts 163°
2026-04-26 06:38 -38.55591 145.23477 26477 ft 440 kts 163°
2026-04-26 06:39 -38.58496 145.24745 26901 ft 442 kts 163°
2026-04-26 06:39 -38.61409 145.26016 27319 ft 444 kts 163°
2026-04-26 06:39 -38.64296 145.27284 27720 ft 446 kts 163°
2026-04-26 06:39 -38.67234 145.28578 28118 ft 448 kts 163°
2026-04-26 06:40 -38.70188 145.29882 28525 ft 450 kts 163°
2026-04-26 06:40 -38.73151 145.31193 28917 ft 452 kts 163°
2026-04-26 06:40 -38.76132 145.32509 29311 ft 454 kts 163°
2026-04-26 06:40 -38.79122 145.33833 29697 ft 456 kts 163°
2026-04-26 06:41 -38.82129 145.35165 30091 ft 458 kts 163°
2026-04-26 06:41 -38.85151 145.36504 30431 ft 460 kts 163°
2026-04-26 06:41 -38.88224 145.37864 30767 ft 462 kts 163°
2026-04-26 06:41 -38.91271 145.39217 31093 ft 464 kts 162°
2026-04-26 06:42 -38.94324 145.40573 31414 ft 465 kts 162°
2026-04-26 06:42 -38.97338 145.41910 31846 ft 464 kts 162°
2026-04-26 06:42 -39.00385 145.43261 32316 ft 462 kts 162°
2026-04-26 06:42 -39.03413 145.44608 32786 ft 460 kts 162°
2026-04-26 06:43 -39.06432 145.45959 33105 ft 459 kts 162°
2026-04-26 06:43 -39.12375 145.48627 33175 ft 445 kts 162°
2026-04-26 06:44 -39.18199 145.51238 33177 ft 442 kts 162°
2026-04-26 06:44 -39.24019 145.53837 33176 ft 442 kts 162°
2026-04-26 06:45 -39.29833 145.56445 33178 ft 443 kts 162°
2026-04-26 06:45 -39.35654 145.59066 33180 ft 443 kts 162°
2026-04-26 06:46 -39.41480 145.61693 33180 ft 443 kts 162°
2026-04-26 06:46 -39.47305 145.64330 33180 ft 444 kts 162°
2026-04-26 06:47 -39.52187 145.66540 33183 ft 444 kts 162°
2026-04-26 06:47 -39.58023 145.69167 33182 ft 444 kts 162°
2026-04-26 06:48 -39.63860 145.71801 33182 ft 444 kts 162°
2026-04-26 06:48 -39.69618 145.74414 33174 ft 441 kts 162°
2026-04-26 06:49 -39.75396 145.77057 33172 ft 444 kts 162°
2026-04-26 06:49 -39.81232 145.79736 33173 ft 445 kts 162°
2026-04-26 06:50 -39.87081 145.82410 33172 ft 445 kts 162°
2026-04-26 06:50 -39.92922 145.85067 33179 ft 445 kts 162°
2026-04-26 06:51 -39.98769 145.87747 33181 ft 445 kts 162°
2026-04-26 06:51 -40.07534 145.91792 33179 ft 446 kts 162°
2026-04-26 06:52 -40.13382 145.94509 33178 ft 446 kts 162°
2026-04-26 06:52 -40.19229 145.97240 33176 ft 446 kts 162°
2026-04-26 06:53 -40.25082 145.99959 33172 ft 446 kts 162°
2026-04-26 06:53 -40.30938 146.02694 33169 ft 447 kts 162°
2026-04-26 06:54 -40.36799 146.05415 33167 ft 447 kts 162°
2026-04-26 06:54 -40.42661 146.08159 33169 ft 447 kts 162°
2026-04-26 06:55 -40.48523 146.10912 33170 ft 447 kts 162°
2026-04-26 06:55 -40.54387 146.13659 33165 ft 448 kts 162°
2026-04-26 06:56 -40.60216 146.16405 33164 ft 448 kts 162°
2026-04-26 06:56 -40.66084 146.19174 33165 ft 448 kts 162°
2026-04-26 06:57 -40.71947 146.21950 33164 ft 448 kts 162°
2026-04-26 06:57 -40.77806 146.24732 33158 ft 448 kts 162°
2026-04-26 06:58 -40.83680 146.27510 33153 ft 448 kts 162°
2026-04-26 06:58 -40.86598 146.28890 32911 ft 441 kts 162°
2026-04-26 06:58 -40.89472 146.30259 32650 ft 437 kts 162°
2026-04-26 06:59 -40.92325 146.31621 32391 ft 435 kts 162°
2026-04-26 06:59 -40.95164 146.32975 32136 ft 433 kts 162°
2026-04-26 06:59 -40.98002 146.34329 31887 ft 432 kts 162°
2026-04-26 06:59 -41.00831 146.35677 31633 ft 431 kts 162°
2026-04-26 07:00 -41.03652 146.37018 31382 ft 430 kts 162°
2026-04-26 07:00 -41.06468 146.38360 31134 ft 430 kts 162°
2026-04-26 07:00 -41.09276 146.39706 30889 ft 429 kts 162°
2026-04-26 07:00 -41.12042 146.41038 30648 ft 428 kts 162°
2026-04-26 07:01 -41.14834 146.42382 30395 ft 424 kts 162°
2026-04-26 07:01 -41.17585 146.43787 29925 ft 425 kts 157°
2026-04-26 07:01 -41.20252 146.45468 29503 ft 422 kts 156°
2026-04-26 07:01 -41.22898 146.47133 29076 ft 420 kts 157°
2026-04-26 07:02 -41.25533 146.48791 28676 ft 418 kts 157°
2026-04-26 07:02 -41.28162 146.50449 28274 ft 417 kts 157°
2026-04-26 07:02 -41.30779 146.52100 27872 ft 415 kts 157°
2026-04-26 07:02 -41.33388 146.53745 27471 ft 414 kts 157°
2026-04-26 07:03 -41.35988 146.55386 27072 ft 413 kts 157°
2026-04-26 07:03 -41.38579 146.57025 26663 ft 412 kts 157°
2026-04-26 07:03 -41.41166 146.58667 26258 ft 410 kts 157°
2026-04-26 07:03 -41.43737 146.60299 25847 ft 409 kts 157°
2026-04-26 07:04 -41.46292 146.61919 25649 ft 402 kts 158°
2026-04-26 07:04 -41.48779 146.63500 25554 ft 390 kts 158°
2026-04-26 07:04 -41.51193 146.65037 25473 ft 379 kts 158°
2026-04-26 07:04 -41.53555 146.66543 25390 ft 373 kts 158°
2026-04-26 07:05 -41.55918 146.68045 25254 ft 383 kts 158°
2026-04-26 07:05 -41.58370 146.69595 25028 ft 403 kts 158°
2026-04-26 07:05 -41.60932 146.71217 24793 ft 409 kts 158°
2026-04-26 07:05 -41.63509 146.72858 24556 ft 410 kts 158°
2026-04-26 07:06 -41.66083 146.74504 24329 ft 413 kts 158°
2026-04-26 07:06 -41.68740 146.76209 24092 ft 429 kts 157°
2026-04-26 07:06 -41.71442 146.77958 23870 ft 433 kts 157°
2026-04-26 07:06 -41.74150 146.79722 23632 ft 430 kts 157°
2026-04-26 07:07 -41.76803 146.81458 23404 ft 421 kts 157°
2026-04-26 07:07 -41.79427 146.83168 22778 ft 416 kts 158°
2026-04-26 07:07 -41.81980 146.84831 22345 ft 400 kts 158°
2026-04-26 07:07 -41.84450 146.86441 21928 ft 391 kts 158°
2026-04-26 07:08 -41.86892 146.88024 21494 ft 389 kts 159°
2026-04-26 07:08 -41.89325 146.89597 21070 ft 387 kts 159°
2026-04-26 07:08 -41.91744 146.91163 20651 ft 385 kts 159°
2026-04-26 07:08 -41.94156 146.92730 20228 ft 384 kts 159°
2026-04-26 07:09 -41.96558 146.94293 19813 ft 383 kts 159°
2026-04-26 07:09 -41.98954 146.95855 19397 ft 382 kts 159°
2026-04-26 07:09 -42.01310 146.97394 18985 ft 381 kts 159°
2026-04-26 07:09 -42.03692 146.98953 18573 ft 380 kts 159°
2026-04-26 07:10 -42.10788 147.03600 17304 ft 375 kts 159°
2026-04-26 07:11 -42.15454 147.06659 16498 ft 371 kts 159°
2026-04-26 07:11 -42.17662 147.08480 16097 ft 375 kts 146°
2026-04-26 07:11 -42.19624 147.10800 15691 ft 375 kts 140°
2026-04-26 07:11 -42.21544 147.13175 15279 ft 374 kts 140°
2026-04-26 07:12 -42.23461 147.15548 14877 ft 374 kts 140°
2026-04-26 07:12 -42.25378 147.17926 14466 ft 374 kts 140°
2026-04-26 07:12 -42.27290 147.20301 14056 ft 373 kts 140°
2026-04-26 07:12 -42.29203 147.22679 13626 ft 373 kts 140°
2026-04-26 07:13 -42.31112 147.25035 13210 ft 370 kts 143°
2026-04-26 07:13 -42.33209 147.26984 12798 ft 363 kts 155°
2026-04-26 07:13 -42.35409 147.28623 12380 ft 360 kts 155°
2026-04-26 07:13 -42.37599 147.30259 11980 ft 359 kts 155°
2026-04-26 07:14 -42.39782 147.31889 11579 ft 357 kts 155°
2026-04-26 07:14 -42.41927 147.33488 11169 ft 356 kts 155°
2026-04-26 07:14 -42.44090 147.35103 10774 ft 354 kts 155°
2026-04-26 07:14 -42.46242 147.36715 10406 ft 351 kts 155°
2026-04-26 07:15 -42.48348 147.38301 10251 ft 340 kts 155°
2026-04-26 07:15 -42.50389 147.39841 10051 ft 333 kts 156°
2026-04-26 07:15 -42.52391 147.41350 9442 ft 328 kts 155°
2026-04-26 07:15 -42.54374 147.42844 8873 ft 322 kts 155°
2026-04-26 07:16 -42.56310 147.44302 8416 ft 314 kts 154°
2026-04-26 07:16 -42.58213 147.45734 8082 ft 313 kts 154°
2026-04-26 07:16 -42.60007 147.47401 7719 ft 313 kts 142°
2026-04-26 07:16 -42.61675 147.49286 7364 ft 311 kts 142°
2026-04-26 07:17 -42.63343 147.51181 7035 ft 312 kts 142°
2026-04-26 07:17 -42.64985 147.53051 6667 ft 304 kts 142°
2026-04-26 07:17 -42.66605 147.54898 6317 ft 304 kts 142°
2026-04-26 07:17 -42.68224 147.56746 6104 ft 301 kts 142°
2026-04-26 07:18 -42.69799 147.58549 5971 ft 292 kts 141°
2026-04-26 07:18 -42.71332 147.60303 5846 ft 283 kts 142°
2026-04-26 07:18 -42.72827 147.62010 5658 ft 279 kts 142°
2026-04-26 07:18 -42.74325 147.63715 5369 ft 279 kts 142°
2026-04-26 07:19 -42.75793 147.65390 4995 ft 274 kts 142°
2026-04-26 07:19 -42.77240 147.67042 4585 ft 267 kts 141°
2026-04-26 07:19 -42.78641 147.68644 4275 ft 261 kts 142°
2026-04-26 07:19 -42.80053 147.70201 3957 ft 259 kts 149°
2026-04-26 07:20 -42.81698 147.70889 3688 ft 248 kts 186°
2026-04-26 07:20 -42.83267 147.70238 3372 ft 229 kts 218°
2026-04-26 07:20 -42.84557 147.68997 3066 ft 225 kts 221°
2026-04-26 07:20 -42.85809 147.67783 2762 ft 216 kts 220°
2026-04-26 07:21 -42.86997 147.66634 2480 ft 202 kts 221°
2026-04-26 07:21 -42.87948 147.65346 2241 ft 184 kts 238°
2026-04-26 07:21 -42.88560 147.63905 2018 ft 170 kts 250°
2026-04-26 07:21 -42.88881 147.62429 1765 ft 154 kts 263°
2026-04-26 07:22 -42.88954 147.61048 1591 ft 139 kts 274°
2026-04-26 07:22 -42.88842 147.59773 1404 ft 133 kts 283°
2026-04-26 07:22 -42.88562 147.58575 1232 ft 133 kts 294°
2026-04-26 07:22 -42.88119 147.57466 1055 ft 134 kts 303°
2026-04-26 07:23 -42.87525 147.56481 870 ft 136 kts 314°
2026-04-26 07:23 -42.86847 147.55567 812 ft 138 kts 315°
2026-04-26 07:23 -42.86149 147.54624 509 ft 142 kts 315°
2026-04-26 07:23 -42.85447 147.53653 291 ft 145 kts 316°
2026-04-26 07:24 -42.84731 147.52688 85 ft 146 kts 315°
2026-04-26 07:24 -42.84045 147.51762 22 ft 122 kts 314°
2026-04-26 07:24 -42.83632 147.51206 26 ft 48 kts 314°
2026-04-26 07:24 -42.83444 147.50933 24 ft 35 kts 315°
2026-04-26 07:25 -42.83327 147.50791 22 ft 13 kts 316°
2026-04-26 07:25 -42.83302 147.50686 19 ft 10 kts 257°
2026-04-26 07:25 -42.83334 147.50623 22 ft 7 kts 229°
2026-04-26 07:25 -42.83364 147.50580 23 ft 3 kts 224°
2026-04-26 07:26 -42.83383 147.50560 22 ft 4 kts 212°
2026-04-26 07:26 -42.83420 147.50556 22 ft 7 kts 162°
2026-04-26 07:26 -42.83461 147.50603 24 ft 9 kts 135°
2026-04-26 07:26 -42.83505 147.50661 26 ft 7 kts 136°
2026-04-26 07:27 -42.83540 147.50704 26 ft 5 kts 155°
2026-04-26 07:27 -42.83584 147.50682 23 ft 9 kts 216°
2026-04-26 07:27 -42.83625 147.50619 22 ft 0 kts 229°
2026-04-26 07:27 -42.83635 147.50606 24 ft 4 kts 224°
2026-04-26 07:28 -42.83650 147.50587 24 ft 2 kts 222°
2026-04-26 07:28 -42.83655 147.50583 23 ft 0 kts 212°